Regional Weather Roundup
Issued by NWS

Home | Current Version | Previous Version | Graphics & Text | Print | Product List | Glossary On
Versions: 1 2 3 4 5 6 7 8 9 10 11 12 13 14 15 16 17 18 19 20 21 22 23 24 25 26 27 28 29 30 31 32 33 34 35 36 37 38 39 40 41 42 43 44 45 46 47 48 49 50
225
ASUS43 KDMX 231106
RWRIA

WEATHER ROUNDUP FOR IOWA
NATIONAL WEATHER SERVICE DES MOINES IA
500 AM CST TUE JAN 23 2018

NOTE: "FAIR" INDICATES FEW OR NO CLOUDS BELOW 12,000 FEET WITH NO
SIGNIFICANT WEATHER AND/OR OBSTRUCTIONS TO VISIBILITY.

* - THESE STATIONS ARE NOT NWS STATIONS...THUS NOT UNDER NWS
QUALITY CONTROL.  THEY ALSO DO NOT REPORT WEATHER SUCH
AS PRECIPITATION OR FOG.

IAZ001>003-012>014-020>022-031>034-043>046-231200-
   NORTHWEST IOWA

CITY           SKY/WX    TMP DP  RH WIND       PRES   REMARKS
CARROLL *      CLOUDY    27  25  93 N21G35    29.97R WCI  13
CHEROKEE *     CLOUDY    24  22  93 N14       30.01R WCI  12
DENISON *      CLOUDY    27  25  93 NW16G23   30.01R WCI  14
LE MARS *      CLOUDY    23  21  93 NW14      30.04R WCI  11
ORANGE CITY *  CLOUDY    23  21  93 N16       30.01R WCI  10
SHELDON *      CLOUDY    21  21 100 NW18G24   29.99R FOG     WCI   6
SIOUX CITY     CLOUDY    24  22  91 N23       30.04R WCI   9
SPENCER        LGT SNOW  24  20  84 NW17G28   29.97R FOG     WCI  11
STORM LAKE *   MIX PCPN  23  21  93 N21G31    29.97R WCI   8
$$

IAZ055>058-069>071-079>083-090>094-231200-
   SOUTHWEST IOWA

CITY           SKY/WX    TMP DP  RH WIND       PRES   REMARKS
ATLANTIC *     CLOUDY    28  27  93 NW16G25   29.99R WCI  17
AUDUBON *      CLOUDY    27  25  93 NW14G20   29.97R WCI  15
CLARINDA *     CLOUDY    30  28  93 N17G25      N/A  WCI  18
COUNCIL BLFS * CLOUDY    25  27 100 NW14G25   30.02R WCI  13
CRESTON *      CLOUDY    28  25  86 NW22G30   29.95R WCI  15
HARLAN  *      CLOUDY    27  27 100 NW17G26   30.04R WCI  14
LAMONI         CLOUDY    30  24  78 NW14G25   29.91R WCI  19
RED OAK *      CLOUDY    28  27  93 NW13G22   30.02R WCI  18
SHENANDOAH *   CLOUDY    28  27  93 NW15G24   30.04R WCI  17
$$

IAZ047>049-059>061-072>074-084-231200-
   CENTRAL IOWA

CITY           SKY/WX    TMP DP  RH WIND       PRES   REMARKS
AMES           CLOUDY    28  27  96 N21G29    29.90R WCI  15
ANKENY *       CLOUDY    28  25  86 NW21      29.91R WCI  15
BOONE *        CLOUDY    27  25  93 NW23G30   29.90R WCI  12
CHARITON *     CLOUDY    28  25  86 NW20G26   29.87R WCI  15
DES MOINES     CLOUDY    30  23  75 NW17G31   29.90R WCI  18
GRINNELL*      CLOUDY    29  26  88 NW18G24   29.83R WCI  16
KNOXVILLE *    CLOUDY    30  25  80 NW21G30   29.86R WCI  17
MARSHALLTOWN   CLOUDY    28  24  85 NW18G28   29.83R WCI  15
NEWTON *       CLOUDY    28  25  86 NW20      29.86R WCI  15
PELLA *        CLOUDY    30  25  83 NW17G28   29.87R WCI  18
PERRY *        CLOUDY    29  26  88 N22G29    29.94R WCI  15
$$

IAZ004>006-015-016-023>025-035-036-231200-
   NORTH CENTRAL IOWA

CITY           SKY/WX    TMP DP  RH WIND       PRES   REMARKS
ALGONA *       CLOUDY    23 N/A N/A NW21G35   29.93R WCI   8
CLARION *      CLOUDY    27  27 100 N23G31    29.90R WCI  12
ESTHERVILLE    CLOUDY    21  20  96 N25       29.96R FOG     WCI   4
FORT DODGE *   CLOUDY    25  22  88 N20G30    29.93R WCI  11
MASON CITY     CLOUDY    24  20  84 NW21G33   29.87R WCI   9
FOREST CITY *  CLOUDY    27  23  86 N22G30    29.89R WCI  12
WEBSTER CITY * CLOUDY    27  23  86 N25G37    29.88R WCI  11
IOWA FALLS *   CLOUDY    28  25  86 NW22G30   29.87R WCI  14
$$

IAZ007>011-017>019-026>030-037>042-050>054-066-231200-
   NORTHEAST IOWA

CITY           SKY/WX    TMP DP  RH WIND       PRES   REMARKS
CEDAR RAPIDS   CLOUDY    30  25  81 NW21G26   29.75R WCI  17
CHARLES CITY * CLOUDY    25  27 100 NW23G31   29.82R WCI  10
CLINTON *      LGT RAIN  33  31  92 NW12      29.69R WCI  24
DECORAH *      LGT RAIN  25  23  93 N15G26    29.76R WCI  12
DUBUQUE        CLOUDY    29  25  85 N17G26    29.69R WCI  17
MONTICELLO *   CLOUDY    30  27  86 N22       29.73R WCI  17
OELWEIN *      CLOUDY    28  28 100 N22G30    29.78R WCI  15
WATERLOO       LGT SNOW  26  23  88 NW20      29.81R FOG     WCI  12
$$

IAZ064-065-067-068-078-231200-
   EAST CENTRAL IOWA

CITY           SKY/WX    TMP DP  RH WIND       PRES   REMARKS
DAVENPORT      CLOUDY    34  31  88 NW13      29.70R WCI  25
IOWA CITY      CLOUDY    33  25  72 NW16      29.77R WCI  23
MT. PLEASANT * CLOUDY    32  30  93 NW17G23   29.76R WCI  21
MUSCATINE *    CLOUDY    34  30  86 NW21G30   29.74R WCI  22
QUAD CITIES    CLOUDY    35  32  88 NW14      29.69R WCI  26
$$

IAZ062-063-075>077-085>089-095>099-231200-
   SOUTHEAST IOWA

CITY           SKY/WX    TMP DP  RH WIND       PRES   REMARKS
BURLINGTON     CLOUDY    33  29  85 NW15G25   29.74R WCI  23
FAIRFIELD *    CLOUDY    30  27  86 NW23G32   29.78R WCI  17
FORT MADISON * CLOUDY    34  30  86 NW14G22   29.77R WCI  24
KEOKUK *       CLOUDY    34  30  86 NW15G23   29.77R WCI  24
OSKALOOSA *    CLOUDY    29  25  85 N25G31    29.83R WCI  15
OTTUMWA        CLOUDY    30  25  81 NW20G31   29.83R WCI  17
WASHINGTON *   CLOUDY    32  30  93 NW23      29.78R WCI  19
$$

ABBREVIATIONS USED IN REMARKS
   TC - TEMPERATURES IN CELSIUS
  WCI - WIND CHILL INDEX
   HX - HEAT INDEX
  VSB - VISIBILITY
$$





USA.gov is the U.S. government's official web portal to all federal, state and local government web resources and services.